Regional Weather Roundup
Issued by NWS

Home | Current Version | Previous Version | Graphics & Text | Print | Product List | Glossary On
Versions: 1 2 3 4 5 6 7 8 9 10 11 12 13 14 15 16 17 18 19 20 21 22 23 24 25 26 27 28 29 30 31 32 33 34 35 36 37 38 39 40 41 42 43 44 45 46 47 48 49 50
000
ASUS45 KBOU 291010
RWRCO

WEATHER ROUNDUP FOR COLORADO
NATIONAL WEATHER SERVICE DENVER/BOULDER CO
400 AM MDT WED JUL 29 2015

NOTE: "FAIR" INDICATES FEW OR NO CLOUDS BELOW 12000 FEET WITH NO
SIGNIFICANT WEATHER AND/OR OBSTRUCTIONS TO VISIBILITY.

COZ001>005-013-030-031-291100-
...NORTHWEST COLORADO...

CITY           SKY/WX    TMP DP  RH WIND       PRES   REMARKS
CRAIG          CLEAR     42  32  67 CALM      30.34R
HAYDEN         CLEAR     48  30  49 E7        30.35R
MEEKER         CLEAR     45  33  63 E5        30.34S
MOUNT WERNER   NOT AVBL
STEAMBOAT SPGS CLEAR     44  34  68 CALM      30.37R
WALDEN         CLEAR     36  28  75 SE3       30.44R
$$

COZ006>008-011-291100-
...WEST CENTRAL VALLEYS...

CITY           SKY/WX    TMP DP  RH WIND       PRES   REMARKS
GRAND JUNCTION PTCLDY    62  27  26 CALM      30.18R
MONTROSE       CLEAR     58  37  45 SE10      30.27R
EAGLE          CLEAR     48  34  57 CALM      30.38R
RIFLE          CLEAR     55  33  43 E3        30.27R
DELTA          CLEAR     60  31  33 E6        30.22S
NUCLA          CLEAR     55  34  44 E7        30.28S
$$

COZ017>023-064>068-291100-
...SOUTHWEST COLORADO...

CITY           SKY/WX    TMP DP  RH WIND       PRES   REMARKS
DURANGO        MOCLDY    55  39  54 E6        30.29R
CORTEZ         CLEAR     52  39  61 E7        30.22R
PAGOSA SPRINGS MOCLDY    58  40  52 CALM      30.38S
TELLURIDE      PTCLDY    53  33  47 SE6       30.48F
WOLF CREEK PAS NOT AVBL
$$

COZ009-010-012-014-032>034-037-058>063-291100-
...CENTRAL COLORADO...

CITY           SKY/WX    TMP DP  RH WIND       PRES   REMARKS
ASPEN          CLEAR     48  35  60 SW7       30.40R
BUENA VISTA    MOCLDY    49  38  65 W5        30.45S
COPPER MTN     CLEAR     52  34  50 S22       30.68S
BERTHOUD PASS  FAIR      41  32  70 MISG      30.73R
COTTONWOOD PAS MOCLDY    54  36  50 W3        30.57R
GUNNISON       MOCLDY    48  34  57 CALM      30.43S
KREMMLING      CLEAR     41  34  75 CALM      30.42R
LEADVILLE      CLEAR     45  34  65 E3        30.55R
MONARCH PASS   PTCLDY    43  34  70 NE5       30.78S
SALIDA         PTCLDY    57  41  55 S3        30.50R
SUNLIGHT       CLEAR     50  28  43 NE3       30.62S
WILKERSON PASS CLEAR     43  36  75 SW5       30.68R
$$

COZ069>075-291100-
...SAN LUIS VALLEY/SANGRE DE CRISTO MOUNTAINS...

CITY           SKY/WX    TMP DP  RH WIND       PRES   REMARKS
ALAMOSA        PTCLDY    54  46  74 SE5       30.35R
LA VETA PASS   CLOUDY    46  37  71 MISG      30.56S
SAGUACHE       PTCLDY    52  45  76 NW3       30.40S
$$

COZ035-036-038>040-291100-
...NORTHERN COLORADO FRONT RANGE...

CITY           SKY/WX    TMP DP  RH WIND       PRES   REMARKS
DENVER INTL AP MOCLDY    59  43  55 S13       30.30R
DMNS CITY PARK   N/A     62  44  51 SE8G14    30.30R
AURORA         MOCLDY    58  44  61 SE10      30.32S
FRONT RANGE AP NOT AVBL
ERIE MUNI ARPT CLEAR     54  46  73 CALM      30.29R
BOULDER MUN AP CLEAR     57  43  58 W3        30.30R
CENTENNIAL     PTCLDY    57  44  62 SE7       30.33R
BROOMFIELD     CLEAR     63  39  42 NW3       30.32R
FORT COLLINS   CLEAR     61  43  51 N3        30.30R
LONGMONT       CLEAR     59  44  56 W3        30.31R
$$

COZ041-046-047-076>085-087-088-291100-
...PIKES PEAK/PALMER DIVIDE AND SOUTHERN FOOTHILLS...

CITY           SKY/WX    TMP DP  RH WIND       PRES   REMARKS
COLO. SPRINGS  MOCLDY    58  44  60 CALM      30.38S
A. F. ACADEMY  PTCLDY    55  42  63 VRB1      30.38S
ELLICOTT       PTCLDY   N/A N/A N/A SE6       30.36R
FALCON         PTCLDY    55  43  63 CALM      30.42S
FORT CARSON    PTCLDY    61  43  50 CALM      30.35R
LIMON          CLOUDY    57  48  72 SE6       30.33R
MONUMENT HILL  PTCLDY    52  41  66 S8        30.41R
TRINIDAD       MOCLDY    62  48  60 E3        30.29R
$$

COZ042>045-048>051-090-091-291100-
...NORTHEAST COLORADO...

CITY           SKY/WX    TMP DP  RH WIND       PRES   REMARKS
GREELEY ARPT   CLEAR     55  46  71 NE3       30.29R
AKRON          PTCLDY    58  48  69 E7        30.28R
BURLINGTON     MOCLDY    60  50  69 S8        30.28R
WRAY           PTCLDY    54  51  91 CALM      30.25R
STERLING       NOT AVBL
HOLYOKE        PTCLDY    59  52  77 W3        30.25S
FORT MORGAN    PTCLDY    54  43  67 N8        30.29R
$$

COZ086-089-092>099-291100-
...SOUTHEAST COLORADO...

CITY           SKY/WX    TMP DP  RH WIND       PRES   REMARKS
PUEBLO         PTCLDY    71  48  43 E12       30.25R
LA JUNTA       MOCLDY    66  52  60 E6        30.23R
LAMAR          MOCLDY    69  57  65 SE9       30.21F
SPRINGFIELD      N/A     64  62  93 NW13      30.19F
$$


USA.gov is the U.S. government's official web portal to all federal, state and local government web resources and services.